SIT-2086

Last updated on Fri Dec 19 2025 00:03:12 GMT+0000 (Coordinated Universal Time)

1 61764U 24199AF 25352.65413628 .00026659 00000+0 60467-3 0 9994 2 61764 97.3226 221.9782 0006785 199.4856 160.6133 15.43022282106505
UTC large
Height (km)
Speed (km/s)
/
Latitude / Longitude
Inclination (degrees)
Orbital Period (minutes)
Azimuth
Elevation
Range (km)
Doppler Factor

Next 0 passes for location: London (51.5072 / 0.1276)

Sorry there are no passes over London.